DW8131 Weather Reports


time (UTC)temp
C
wind
direction
speed
KPH
gust
KPH
rain 1hr
cm
rain 24hr
cm
rain mn
cm
humidity
%
barometer
mb
20260507074535 18 302 8.0 0.0 0.00 0.00 0.00 44 1015.5
20260507073033 17 286 4.8 0.0 0.00 0.00 0.00 44 1015.3
20260507071529 17 349 3.2 0.0 0.00 0.00 0.00 47 1015.2
20260507070038 16 305 4.8 0.0 0.00 0.00 0.00 50 1015.3
20260507064520 15 316 3.2 0.0 0.00 0.00 0.00 55 1015.1
20260507063017 13 238 1.6 0.0 0.00 0.00 0.00 58 1014.9
20260507061513 11 15 1.6 0.0 0.00 0.00 0.00 68 1014.9
20260507060015 8 31 1.6 0.0 0.00 0.00 0.00 71 1014.9
20260507054504 7 40 1.6 0.0 0.00 0.00 0.00 73 1014.8
20260507053126 6 61 1.6 0.0 0.00 0.00 0.00 74 1014.7
20260507051559 6 38 3.2 0.0 0.00 0.00 0.00 77 1014.5
20260507050057 5 44 3.2 0.0 0.00 0.00 0.00 79 1014.4
20260507044617 5 38 4.8 0.0 0.00 0.00 0.00 76 1014.2
20260507043055 -17 0.0 0.0 0.00 0.00 0.00 1014.1
20260507041551 -17 0.0 0.0 0.00 0.00 0.00 1014.1
20260507040047 -17 0.0 0.0 0.00 0.00 0.00 1014.1
20260507034544 -17 0.0 0.0 0.00 0.00 0.00 1013.8
20260507033047 -17 0.0 0.0 0.00 0.00 0.00 1013.9
20260507031545 -17 0.0 0.0 0.00 0.00 0.00 1013.9
20260507030025 -17 0.0 0.0 0.00 0.00 0.00 1013.9
20260507024524 -17 0.0 0.0 0.00 0.00 0.00 1013.9
20260507023017 -17 0.0 0.0 0.00 0.00 0.00 1013.6
20260507021515 3 22 4.8 0.0 0.00 0.00 0.00 83 1013.6
20260507020013 3 30 3.2 0.0 0.00 0.00 0.00 82 1013.5
20260507014510 4 29 3.2 0.0 0.00 0.00 0.00 82 1013.5
20260507013008 4 28 4.8 0.0 0.00 0.00 0.00 83 1013.4
20260507011518 4 30 3.2 0.0 0.00 0.00 0.00 83 1013.3
20260507010004 4 31 3.2 0.0 0.00 0.00 0.00 83 1013.2
20260507004501 5 34 3.2 0.0 0.00 0.00 0.00 81 1013.0
20260507003108 5 28 0.0 0.0 0.00 0.00 0.00 80 1013.1
20260507001559 6 24 3.2 0.0 0.00 0.00 0.00 78 1013.0
20260507000052 6 16 4.8 0.0 0.00 0.00 0.00 78 1012.9
20260506234600 6 19 4.8 0.0 0.00 0.00 0.00 78 1012.7
20260506233052 6 349 6.4 0.0 0.00 0.00 0.00 78 1012.8
20260506231553 6 325 4.8 0.0 0.00 0.00 0.00 76 1012.8
20260506230042 6 318 4.8 0.0 0.00 0.00 0.00 74 1012.6
20260506224542 6 329 4.8 0.0 0.00 0.00 0.00 73 1012.5
20260506223042 6 337 4.8 0.0 0.00 0.00 0.00 72 1012.4
20260506221541 7 5 3.2 0.0 0.00 0.00 0.00 70 1012.5
20260506220039 7 15 4.8 0.0 0.00 0.00 0.00 68 1012.2
20260506214538 7 355 6.4 0.0 0.00 0.00 0.00 67 1012.2
20260506213040 7 326 4.8 0.0 0.00 0.00 0.00 68 1012.0
20260506211538 7 325 6.4 0.0 0.00 0.00 0.00 71 1012.0
20260506210037 7 317 6.4 0.0 0.00 0.00 0.00 73 1011.9
20260506204540 7 338 4.8 0.0 0.00 0.00 0.00 73 1011.8
20260506203040 7 338 4.8 0.0 0.00 0.00 0.00 72 1011.7
20260506201539 8 327 6.4 0.0 0.00 0.00 0.00 69 1011.7
20260506200039 8 333 6.4 0.0 0.00 0.00 0.00 68 1011.6
20260506194534 8 320 6.4 0.0 0.00 0.00 0.00 66 1011.6
20260506193033 9 5 6.4 0.0 0.00 0.00 0.00 65 1011.5
20260506191533 9 338 6.4 0.0 0.00 0.00 0.00 63 1011.4
20260506190038 10 360 6.4 0.0 0.00 0.00 0.00 61 1011.3
20260506184540 10 355 8.0 0.0 0.00 0.00 0.00 59 1011.1
20260506183031 10 333 8.0 0.0 0.00 0.00 0.00 56 1010.9
20260506181533 11 319 9.7 0.0 0.00 0.00 0.00 53 1010.8
20260506180031 11 328 8.0 0.0 0.00 0.00 0.00 54 1010.7
20260506174530 11 348 9.7 0.0 0.00 0.00 0.00 51 1010.6
20260506173035 11 323 11.3 0.0 0.00 0.00 0.00 49 1010.6
20260506171530 11 319 9.7 0.0 0.00 0.00 0.00 50 1010.6
20260506170031 12 310 11.3 0.0 0.00 0.00 0.00 49 1010.6
20260506164528 12 274 12.9 0.0 0.00 0.00 0.00 49 1010.4
20260506163031 12 324 12.9 0.0 0.00 0.00 0.00 47 1010.5
20260506161527 12 331 12.9 0.0 0.00 0.00 0.00 45 1010.5
20260506160028 12 316 12.9 0.0 0.00 0.00 0.00 45 1010.4
20260506154525 12 326 11.3 0.0 0.00 0.00 0.00 46 1010.5
20260506153024 12 314 14.5 0.0 0.00 0.00 0.00 45 1010.7
20260506151525 12 311 16.1 0.0 0.00 0.00 0.00 44 1010.6
20260506150022 12 348 17.7 0.0 0.00 0.00 0.00 42 1010.6
20260506144522 13 279 16.1 0.0 0.00 0.00 0.00 43 1010.5
20260506143025 13 312 14.5 0.0 0.00 0.00 0.00 44 1010.6
20260506141519 13 346 16.1 0.0 0.00 0.00 0.00 45 1010.8
20260506140018 13 316 16.1 0.0 0.00 0.00 0.00 45 1010.6
20260506134517 13 314 16.1 0.0 0.00 0.00 0.00 45 1010.8
20260506133018 14 312 17.7 0.0 0.00 0.00 0.00 42 1010.9
20260506131518 14 273 16.1 0.0 0.00 0.00 0.00 43 1010.9
20260506130014 15 301 17.7 0.0 0.00 0.00 0.00 42 1010.8
20260506124513 15 323 16.1 0.0 0.00 0.00 0.00 45 1010.8
20260506123012 15 260 16.1 0.0 0.00 0.00 0.00 43 1010.8
20260506121513 15 280 16.1 0.0 0.00 0.00 0.00 46 1010.9
20260506120015 16 306 16.1 0.0 0.00 0.00 0.00 45 1010.9
20260506114508 16 325 16.1 0.0 0.00 0.00 0.00 45 1011.0
20260506113008 17 290 16.1 0.0 0.00 0.00 0.00 41 1011.0
20260506111507 17 319 16.1 0.0 0.00 0.00 0.00 38 1011.0
20260506110005 18 300 12.9 0.0 0.00 0.00 0.00 40 1011.2
20260506104504 18 277 14.5 0.0 0.00 0.00 0.00 35 1011.2
20260506103004 18 279 14.5 0.0 0.00 0.00 0.00 37 1011.2
20260506101506 18 297 12.9 0.0 0.00 0.00 0.00 35 1011.2
20260506100001 18 294 12.9 0.0 0.00 0.00 0.00 37 1011.2
20260506094559 17 263 11.3 0.0 0.00 0.00 0.00 39 1011.2
20260506093055 16 233 12.9 0.0 0.00 0.00 0.00 37 1011.3
20260506091551 15 232 12.9 0.0 0.00 0.00 0.00 40 1011.3
20260506090047 13 214 12.9 0.0 0.00 0.00 0.00 40 1011.3
20260506084607 13 199 9.7 0.0 0.00 0.00 0.00 39 1011.3
20260506083045 12 166 9.7 0.0 0.00 0.00 0.00 35 1011.3
20260506081549 12 125 6.4 0.0 0.00 0.00 0.00 36 1011.4